Meteo Giornale » Osservazioni meteo Italia » Napoli-Capodichino

ore: 18:50 - Osservazioni Meteo Napoli-Capodichino
Lat. 40° 51' N Lon. 14° 18' E Alt. 88 metri s.l.m.

sereno Europe/Rome

27 °C

Sereno

Temp. 24 Ore

20 °C

29 °C

Nord

5.5 Km/h

Dew point 14 °C

Umidità 44 %

Visibilità  10 Km

Il sole sorge alle ore 06:55

Il sole tramonta alle ore 18:51

Data e Ora Cielo e Fenomeni T °C DP °C Um. % Pres. hPa Vis. km Vento km/h
Oggi h: 18:50 sereno Sereno 27 14 44 1016 10 N 5.5
Oggi h: 18:20 sereno Sereno 27 14 44 1016 10 E 13
Oggi h: 17:50 poco_nuvoloso Poco Nuvoloso 28 15 45 1016 10 E 13
Oggi h: 17:20 poco_nuvoloso Poco Nuvoloso 28 15 45 1016 10 E 11.1
Oggi h: 16:50 poco_nuvoloso Poco Nuvoloso 29 15 42 1015 10 E 11.1
Oggi h: 16:20 poco_nuvoloso Poco Nuvoloso 29 15 42 1015 10 E/SE 14.8
Oggi h: 15:50 poco_nuvoloso Poco Nuvoloso 29 15 42 1015 10 E 13
Oggi h: 15:20 poco_nuvoloso Poco Nuvoloso 29 15 42 1015 10 E 13
Oggi h: 14:50 poco_nuvoloso Poco Nuvoloso 29 15 42 1016 10 E 13
Oggi h: 14:20 nuvoloso Nuvoloso 29 15 42 1016 10 E/NE 16.7
Oggi h: 13:50 poco_nuvoloso Poco Nuvoloso 29 15 42 1016 10 E/NE 11.1
Oggi h: 13:20 poco_nuvoloso Poco Nuvoloso 29 15 42 1016 10 N 11.1
Oggi h: 12:50 poco_nuvoloso Poco Nuvoloso 28 15 45 1016 10 E/NE 14.8
Oggi h: 12:20 poco_nuvoloso Poco Nuvoloso 28 16 48 1017 10 E 9.3
Oggi h: 11:50 poco_nuvoloso Poco Nuvoloso 27 16 50 1017 10 E/SE 9.3
Oggi h: 11:20 poco_nuvoloso Poco Nuvoloso 27 16 50 1017 10 N 9.3
Oggi h: 10:50 poco_nuvoloso Poco Nuvoloso 27 16 50 1017 10 E 13
Oggi h: 10:20 poco_nuvoloso Poco Nuvoloso 26 17 57 1017 10 N 9.3
Oggi h: 09:50 poco_nuvoloso Poco Nuvoloso 25 17 61 1017 10 E 9.3
Oggi h: 09:20 sereno Sereno 24 17 64 1017 9 N/NE 9.3
Oggi h: 08:50 sereno Sereno 23 18 73 1017 9 N 7.4
Oggi h: 08:20 sereno Sereno 22 18 78 1016 9 N 5.5
Oggi h: 07:50 sereno Sereno 21 19 88 1016 9 N 5.5
Oggi h: 07:20 poco_nuvoloso Poco Nuvoloso 21 19 88 1016 9 N 5.5
Oggi h: 06:50 sereno Sereno 21 19 88 1016 10 N 5.5
Oggi h: 05:50 sereno Sereno 20 19 93 1016 10 N 5.5
Oggi h: 05:20 sereno Sereno 21 19 88 1016 10 N 5.5
Oggi h: 04:50 sereno Sereno 20 19 93 1016 10 N 5.5
Oggi h: 03:20 sereno Sereno 21 19 88 1017 10 E/NE 7.4
Oggi h: 02:50 sereno Sereno 21 19 88 1017 10 N 3.7
Oggi h: 02:20 sereno Sereno 20 19 93 1017 10 N 1.8
Oggi h: 01:50 sereno Sereno 21 19 88 1017 10 N 3.7
Oggi h: 01:20 sereno Sereno 21 19 88 1017 10 N 1.8
Oggi h: 00:50 sereno Sereno 21 19 88 1017 10 N 3.7
Oggi h: 00:20 sereno Sereno 21 19 88 1017 10 N 1.8
Ieri h: 23:50 sereno Sereno 21 19 88 1017 10 E/NE 7.4
Ieri h: 23:20 sereno Sereno 22 19 83 1017 10 N 5.5
Ieri h: 22:50 sereno Sereno 22 20 88 1017 10 N 5.5
Ieri h: 22:20 sereno Sereno 22 20 88 1017 10 N 3.7
Ieri h: 21:50 sereno Sereno 23 21 88 1017 10 N 3.7
Ieri h: 21:20 sereno Sereno 23 21 88 1016 10 N 3.7
Ieri h: 20:50 sereno Sereno 23 20 83 1016 10 N 3.7
Ieri h: 20:20 sereno Sereno 23 20 83 1016 10 N 5.5
Ieri h: 19:50 poco_nuvoloso Poco Nuvoloso 23 20 83 1016 10 N 5.5